Powrót do katalogu

STARLINK-3807

AktywnyŁącznośćVLEO
NORAD 52353·PAYLOAD·🇺🇸 United States

Wystrzelony Apr 29, 2022 z Cape Canaveral Space Force Station

Loading…

Następne Przeloty (najbliższe 24 godziny)

TLE

ŚwieżeSource: CelesTrak SupGP

Epoka: Sep 14, 2026, 21:40 UTC

1 52353C 22045Y   26257.90326389  .00047532  00000+0  14429-2 0  2572
2 52353  53.1594  56.0355 0001174  77.7966 297.7507 15.33512355    17

Śledź STARLINK-3807 w czasie rzeczywistym z AllMySat

Download on the App Store